TimeCDT,TemperatureF,Dew PointF,Humidity,Sea Level PressureIn,VisibilityMPH,Wind Direction,Wind SpeedMPH,Gust SpeedMPH,PrecipitationIn,Events,Conditions,WindDirDegrees,DateUTC
12:53 AM,55.9,50.0,80,29.85,10.0,Calm,Calm,-,N/A,,Clear,0,2012-10-02 05:53:00
1:53 AM,55.0,50.0,83,29.86,10.0,Calm,Calm,-,N/A,,Clear,0,2012-10-02 06:53:00
2:53 AM,54.0,51.1,90,29.86,10.0,NW,3.5,-,N/A,,Clear,320,2012-10-02 07:53:00
3:53 AM,54.0,50.0,86,29.88,10.0,NW,3.5,-,N/A,,Clear,320,2012-10-02 08:53:00
4:53 AM,52.0,46.9,83,29.89,10.0,NW,3.5,-,N/A,,Clear,320,2012-10-02 09:53:00
5:53 AM,52.0,46.0,80,29.90,10.0,Calm,Calm,-,N/A,,Clear,0,2012-10-02 10:53:00
6:53 AM,51.1,46.0,83,29.91,10.0,WNW,3.5,-,N/A,,Clear,300,2012-10-02 11:53:00
7:53 AM,51.8,46.4,82,29.94,10.0,Calm,Calm,-,N/A,,Clear,0,2012-10-02 12:53:00
8:53 AM,55.0,46.9,74,29.94,10.0,NNW,3.5,-,N/A,,Clear,340,2012-10-02 13:53:00
9:53 AM,60.1,46.9,62,29.94,10.0,North,6.9,-,N/A,,Clear,360,2012-10-02 14:53:00
10:53 AM,64.0,48.9,58,29.95,10.0,North,5.8,-,N/A,,Clear,360,2012-10-02 15:53:00
11:53 AM,66.9,52.0,59,29.94,10.0,Variable,4.6,-,N/A,,Clear,0,2012-10-02 16:53:00
12:53 PM,69.1,51.1,53,29.93,10.0,West,8.1,-,N/A,,Clear,280,2012-10-02 17:53:00
1:53 PM,71.1,48.0,44,29.90,10.0,NW,13.8,17.3,N/A,,Clear,310,2012-10-02 18:53:00
2:53 PM,72.0,48.9,44,29.89,10.0,NNW,8.1,-,N/A,,Clear,330,2012-10-02 19:53:00
3:53 PM,73.0,46.9,39,29.88,10.0,NNW,6.9,-,N/A,,Clear,330,2012-10-02 20:53:00
4:53 PM,72.0,46.9,41,29.88,10.0,NW,8.1,-,N/A,,Clear,310,2012-10-02 21:53:00
5:53 PM,70.0,48.9,47,29.88,10.0,WNW,5.8,-,N/A,,Clear,300,2012-10-02 22:53:00
6:53 PM,64.9,48.9,56,29.89,10.0,Variable,4.6,-,N/A,,Clear,0,2012-10-02 23:53:00
7:53 PM,60.1,50.0,69,29.91,10.0,Calm,Calm,-,N/A,,Clear,0,2012-10-03 00:53:00
8:53 PM,57.2,51.8,82,29.93,10.0,Calm,Calm,-,N/A,,Clear,0,2012-10-03 01:53:00
9:53 PM,54.0,50.0,86,29.93,10.0,Calm,Calm,-,N/A,,Clear,0,2012-10-03 02:53:00
10:53 PM,53.1,50.0,89,29.93,10.0,Calm,Calm,-,N/A,,Clear,0,2012-10-03 03:53:00
11:53 PM,50.0,48.0,93,29.94,10.0,Calm,Calm,-,N/A,,Clear,0,2012-10-03 04:53:00